This demonstration page uses our WeatherBlox Daily Observations layout. Learn more.

38.89511, -77.03637

Hourly Observations for September 12, 2015

Temp ( °F °C ) Dew Point ( °F °C ) Humidity (%) Winds ( mph kmh ) Pressure ( in mb ) Visibility ( mi km ) Precip ( " mm )
12:52 am 00:52 Clear 70 21 63 17 78 78 SW 5 7 29.83 1010 10 16.09344 0 0
1:52 am 01:52 Clear 70 21 64 18 83 83 Calm 29.83 1010 10 16.09344 0 0
2:52 am 02:52 Clear 70 21 61 16 73 73 S 3 6 29.8 1009 10 16.09344 0 0
3:52 am 03:52 Clear 68 20 63 17 83 83 Calm 29.8 1009 10 16.09344 0 0
4:52 am 04:52 Partly Cloudy 68 20 64 18 88 88 Calm 29.8 1009 10 16.09344 0 0
5:52 am 05:52 Partly Cloudy 68 20 64 18 88 88 Calm 29.77 1008 10 16.09344 0 0
6:23 am 06:23 Cloudy 68 20 66 19 94 94 SSE 5 7 29.77 1008 10 16.09344 0 0
6:52 am 06:52 Cloudy 70 21 66 19 88 88 SE 3 6 29.77 1008 10 16.09344 0 0
6:56 am 06:56 Cloudy 70 21 66 19 88 88 Calm 29.8 1009 10 16.09344 0 0
7:19 am 07:19 Cloudy 70 21 66 19 88 88 E 5 7 29.77 1008 10 16.09344 0 0
7:52 am 07:52 Cloudy 70 21 66 19 88 88 SE 6 9 29.77 1008 10 16.09344 0 0
8:52 am 08:52 Cloudy with Light Rain 70 21 68 20 94 94 ESE 6 9 29.74 1007 9 14.484096 0.02 0.508
9:52 am 09:52 Cloudy 72 22 70 21 94 94 SSE 5 7 29.74 1007 10 16.09344 0.03 0.762
10:52 am 10:52 Cloudy with Light Rain 73 23 70 21 89 89 S 12 19 29.74 1007 10 16.09344 0.02 0.508
11:52 am 11:52 Cloudy 75 24 70 21 83 83 SSE 10 17 29.74 1007 10 16.09344 0.001 0.001
12:52 pm 12:52 Cloudy with Light Rain 75 24 72 22 89 89 SSE 10 17 29.71 1006 9 14.484096 0.001 0.001
1:30 pm 13:30 Cloudy with Heavy Rain 73 23 72 22 94 94 S 13 20 29.68 1005 2 3.218688 0 0
1:44 pm 13:44 Cloudy with Rain 73 23 72 22 94 94 SSW 9 15 29.68 1005 4 6.437376 0 0
1:52 pm 13:52 Cloudy with Light Rain 73 23 72 22 94 94 S 13 20 29.68 1005 9 14.484096 0.09 2.286
1:58 pm 13:58 Cloudy 73 23 72 22 94 94 SSW 10 17 29.68 1005 10 16.09344 0 0
2:43 pm 14:43 Cloudy 73 23 70 21 89 89 SSE 6 9 29.68 1005 10 16.09344 0.001 0.001
2:52 pm 14:52 Cloudy 73 23 70 21 89 89 Calm 29.68 1005 10 16.09344 0.001 0.001
3:05 pm 15:05 Cloudy 73 23 72 22 94 94 S 3 6 29.65 1004 10 16.09344 0 0
3:21 pm 15:21 Cloudy 75 24 72 22 89 89 S 5 7 29.65 1004 10 16.09344 0 0
3:52 pm 15:52 Cloudy 75 24 70 21 83 83 S 6 9 29.65 1004 10 16.09344 0 0
4:03 pm 16:03 Cloudy 75 24 70 21 83 83 SW 7 11 29.65 1004 10 16.09344 0 0
4:25 pm 16:25 Cloudy 75 24 70 21 83 83 WSW 6 9 29.65 1004 10 16.09344 0 0
4:36 pm 16:36 Cloudy 75 24 70 21 83 83 WNW 9 15 29.65 1004 10 16.09344 0 0
4:45 pm 16:45 Cloudy 75 24 70 21 83 83 WNW 8 13 29.65 1004 10 16.09344 0 0
4:52 pm 16:52 Cloudy 75 24 70 21 83 83 W 10 17 29.65 1004 10 16.09344 0 0
5:06 pm 17:06 Cloudy 75 24 68 20 78 78 W 9 15 29.65 1004 10 16.09344 0 0
5:52 pm 17:52 Cloudy 73 23 68 20 83 83 W 7 11 29.65 1004 10 16.09344 0 0
6:52 pm 18:52 Cloudy 73 23 68 20 83 83 N 5 7 29.68 1005 10 16.09344 0 0
7:52 pm 19:52 Cloudy 73 23 66 19 78 78 W 8 13 29.68 1005 10 16.09344 0 0
8:52 pm 20:52 Cloudy 72 22 64 18 78 78 WNW 7 11 29.71 1006 10 16.09344 0 0
9:52 pm 21:52 Cloudy 72 22 64 18 78 78 WNW 6 9 29.71 1006 10 16.09344 0 0
10:52 pm 22:52 Cloudy 72 22 63 17 73 73 WNW 6 9 29.71 1006 10 16.09344 0 0
11:52 pm 23:52 Mostly Cloudy 70 21 61 16 73 73 WNW 6 9 29.71 1006 10 16.09344 0 0

Powered by AerisWeather